Cincinnati, OH

2:17 PM EDT on May 24, 2017 (GMT -0400)
Cincinnati Municipal-Lunken

Weather History for KLUK - November, 2011

Change the Weather History Date:

Tuesday, November 1, 2011

  Actual Average Record
Temperature  
Mean Temperature 47 °F -  
Max Temperature 64 °F 66 °F 82 °F (1950)
Min Temperature 30 °F 45 °F 26 °F (1962)
Degree Days  
Heating Degree Days 18    
Moisture  
Dew Point 34 °F    
Average Humidity 84    
Maximum Humidity 100    
Minimum Humidity 34    
Precipitation  
Precipitation 0.00 in - - ()
Sea Level Pressure  
Sea Level Pressure 30.26 in    
Wind  
Wind Speed 1 mph (South)    
Max Wind Speed 9 mph    
Max Gust Speed -    
Visibility 4 miles    
Events Fog    
Averages and records for this station are not official NWS values.
T = Trace of Precipitation, MM = Missing Value Source: NWS Daily Summary

Daily Weather History Graph

Daily Weather History Graph

Search for Another Location

Airport or City:

Trip Planner

Search our weather history database for the weather conditions in past years. The results will help you decide how hot, cold, wet, or windy it might be!

Date:

Astronomy

Nov. 01, 2011 Rise Set
Actual Time 8:04 AM EDT 6:37 PM EDT
Civil Twilight 7:37 AM EDT 7:04 PM EDT
Nautical Twilight 7:05 AM EDT 7:36 PM EDT
Astronomical Twilight 6:34 AM EDT 8:07 PM EDT
Moon 1:50 PM EDT (11/1) No Moon Set
Length of Visible Light 11h 27m
Length of Day
10h 32m
Waxing Crescent, 39% of the Moon is Illuminated
Nov 1
Waxing Crescent
Nov 2
First Quarter
Nov 10
Full
Nov 18
Last Quarter
Nov 25
New

Hourly Weather History & Observations

Time (EDT) Temp. Windchill Dew Point Humidity Pressure Visibility Wind Dir Wind Speed Gust Speed Precip Events Conditions
12:53 AM 37.0 °F - 35.1 °F 93% 30.21 in 5.0 mi Calm Calm - N/A   Clear
1:53 AM 34.0 °F - 33.1 °F 96% 30.22 in 3.0 mi Calm Calm - N/A   Clear
2:05 AM 35.6 °F - 33.8 °F 93% 30.21 in 2.5 mi Calm Calm - N/A   Clear
2:20 AM 35.6 °F - 33.8 °F 93% 30.22 in 0.8 mi Calm Calm - N/A   Clear
2:53 AM 35.1 °F - 33.1 °F 92% 30.23 in 2.0 mi Calm Calm - N/A   Clear
3:01 AM 35.6 °F - 33.8 °F 93% 30.22 in 3.0 mi Calm Calm - N/A   Clear
3:09 AM 33.8 °F - 33.8 °F 100% 30.23 in 1.8 mi Calm Calm - N/A   Clear
3:37 AM 33.8 °F - 32.0 °F 93% 30.23 in 3.0 mi Calm Calm - N/A   Clear
3:53 AM 33.8 °F - 32.0 °F 93% 30.23 in 3.0 mi Calm Calm - N/A   Clear
4:08 AM 33.8 °F - 30.2 °F 87% 30.24 in 1.5 mi Calm Calm - N/A   Clear
4:20 AM 33.8 °F - 30.2 °F 87% 30.24 in 3.0 mi Calm Calm - N/A   Clear
4:28 AM 32.0 °F - 30.2 °F 93% 30.23 in 0.8 mi Calm Calm - N/A   Clear
4:41 AM 32.0 °F - 30.2 °F 93% 30.23 in 0.2 mi Calm Calm - N/A Fog Fog
4:50 AM 32.0 °F - 30.2 °F 93% 30.23 in 0.8 mi Calm Calm - N/A   Clear
4:53 AM 32.0 °F - 30.9 °F 96% 30.24 in 1.2 mi Calm Calm - N/A   Clear
5:01 AM 32.0 °F - 30.2 °F 93% 30.23 in 0.8 mi Calm Calm - N/A   Mist
5:10 AM 33.8 °F - 30.2 °F 87% 30.24 in 1.0 mi Calm Calm - N/A   Clear
5:18 AM 33.8 °F - 32.0 °F 93% 30.24 in 0.8 mi Calm Calm - N/A   Mist
5:22 AM 33.8 °F - 30.2 °F 87% 30.24 in 1.2 mi Calm Calm - N/A   Scattered Clouds
5:27 AM 30.2 °F - 30.2 °F 100% 30.25 in 0.8 mi Calm Calm - N/A   Mist
5:38 AM 32.0 °F 28.7 °F 30.2 °F 93% 30.25 in 0.2 mi SSW 3.5 mph - N/A Fog Fog
5:53 AM 33.1 °F - 32.0 °F 96% 30.26 in 0.2 mi Calm Calm - N/A Fog Fog
6:39 AM 32.0 °F - 30.2 °F 93% 30.27 in 0.8 mi Calm Calm - N/A   Mist
6:49 AM 32.0 °F - 32.0 °F 100% 30.27 in 0.2 mi Calm Calm - N/A Fog Fog
6:53 AM 33.1 °F - 32.0 °F 96% 30.28 in 0.2 mi Calm Calm - N/A Fog Fog
7:53 AM 34.0 °F - 33.1 °F 96% 30.30 in 0.2 mi Calm Calm - 0.00 in Fog Fog
8:53 AM 33.8 °F - 33.8 °F 100% 30.30 in 0.2 mi Calm Calm - N/A Fog Fog
9:53 AM 37.0 °F - 36.0 °F 96% 30.33 in 0.2 mi Calm Calm - N/A Fog Fog
10:06 AM 37.4 °F - 37.4 °F 100% 30.32 in 0.5 mi Calm Calm - N/A Fog Fog
10:16 AM 37.4 °F - 37.4 °F 100% 30.32 in 4.0 mi Calm Calm - N/A   Scattered Clouds
10:53 AM 43.0 °F - 41.0 °F 93% 30.33 in 10.0 mi Calm Calm - N/A   Clear
11:53 AM 53.1 °F - 39.9 °F 61% 30.32 in 10.0 mi Variable 3.5 mph - N/A   Clear
12:53 PM 57.9 °F - 37.0 °F 46% 30.30 in 10.0 mi South 6.9 mph - N/A   Clear
1:53 PM 60.8 °F - 37.4 °F 42% 30.27 in 10.0 mi SSE 4.6 mph - N/A   Clear
2:53 PM 64.0 °F - 37.0 °F 37% 30.25 in 10.0 mi South 4.6 mph - N/A   Clear
3:53 PM 64.0 °F - 35.1 °F 34% 30.25 in 10.0 mi South 8.1 mph - N/A   Clear
4:53 PM 64.0 °F - 35.1 °F 34% 30.25 in 10.0 mi South 9.2 mph - N/A   Clear
5:53 PM 61.0 °F - 37.0 °F 41% 30.24 in 10.0 mi SSW 5.8 mph - N/A   Clear
6:53 PM 55.0 °F - 37.9 °F 53% 30.25 in 10.0 mi Calm Calm - N/A   Clear
7:53 PM 48.2 °F - 39.2 °F 71% 30.25 in 10.0 mi Calm Calm - N/A   Clear
8:53 PM 46.0 °F - 39.9 °F 79% 30.26 in 10.0 mi Calm Calm - N/A   Clear
9:53 PM 45.0 °F - 39.9 °F 82% 30.27 in 10.0 mi Calm Calm - N/A   Clear
10:53 PM 42.1 °F - 39.0 °F 89% 30.27 in 10.0 mi Calm Calm - N/A   Clear
11:53 PM 42.1 °F - 39.0 °F 89% 30.27 in 10.0 mi Calm Calm - N/A   Clear